Akron Canton, OH

5:30 PM EDT on July 21, 2017 (GMT -0400)
Akron-Canton Regional

Weather History for KCAK - September, 2013

Change the Weather History Date:

Saturday, September 14, 2013

  Actual Average Record
Temperature  
Mean Temperature 57 °F 64 °F  
Max Temperature 67 °F 74 °F 97 °F (1939)
Min Temperature 47 °F 54 °F 36 °F (1902)
Degree Days  
Heating Degree Days 8 3  
Month to date heating degree days 25 26  
Since 1 July heating degree days 38 46  
Cooling Degree Days 0 2  
Month to date cooling degree days 64 44  
Year to date cooling degree days 788 626  
Growing Degree Days 6 (Base 50)    
Moisture  
Dew Point 43 °F    
Average Humidity 64    
Maximum Humidity 86    
Minimum Humidity 42    
Precipitation  
Precipitation 0.00 in 0.12 in 3.23 in (1979)
Month to date precipitation 1.52 1.66  
Year to date precipitation 28.59 28.86  
Snow  
Snow 0.00 in 0.00 in - ()
Month to date snowfall 0.0 0.0  
Since 1 July snowfall 0.0 0.0  
Since 1 September snowfall 0.0 0.0  
Snow Depth 0.00 in    
Sea Level Pressure  
Sea Level Pressure 30.13 in    
Wind  
Wind Speed 4 mph (North)    
Max Wind Speed 12 mph    
Max Gust Speed 15 mph    
Visibility 10 miles    
Events      
T = Trace of Precipitation, MM = Missing Value Source: NWS Daily Summary

Daily Weather History Graph

Daily Weather History Graph

Search for Another Location

Airport or City:

Trip Planner

Search our weather history database for the weather conditions in past years. The results will help you decide how hot, cold, wet, or windy it might be!

Date:

Astronomy

Sep. 14, 2013 Rise Set
Actual Time 7:05 AM EDT 7:36 PM EDT
Civil Twilight 6:37 AM EDT 8:03 PM EDT
Nautical Twilight 6:05 AM EDT 8:36 PM EDT
Astronomical Twilight 5:31 AM EDT 9:09 PM EDT
Moon 4:18 PM EDT (9/14) 1:34 AM EDT (9/14)
Length of Visible Light 13h 25m
Length of Day
12h 30m
Waxing Gibbous, 72% of the Moon is Illuminated
Sep 14
Waxing Gibbous
Sep 19
Full
Sep 26
Last Quarter
Oct 4
New
Oct 11
First Quarter

Hourly Weather History & Observations

Time (EDT) Temp. Dew Point Humidity Pressure Visibility Wind Dir Wind Speed Gust Speed Precip Events Conditions
12:51 AM 52.0 °F 46.0 °F 80% 30.07 in 10.0 mi North 4.6 mph - N/A   Mostly Cloudy
1:51 AM 50.0 °F 44.1 °F 80% 30.08 in 10.0 mi North 6.9 mph - N/A   Mostly Cloudy
2:51 AM 48.9 °F 45.0 °F 86% 30.09 in 10.0 mi NNW 4.6 mph - N/A   Mostly Cloudy
3:51 AM 48.9 °F 43.0 °F 80% 30.10 in 10.0 mi North 4.6 mph - N/A   Mostly Cloudy
4:51 AM 48.9 °F 43.0 °F 80% 30.10 in 10.0 mi North 4.6 mph - N/A   Mostly Cloudy
5:51 AM 48.0 °F 42.1 °F 80% 30.12 in 10.0 mi North 4.6 mph - N/A   Mostly Cloudy
6:51 AM 48.0 °F 39.9 °F 74% 30.13 in 10.0 mi North 4.6 mph - N/A   Mostly Cloudy
7:51 AM 48.0 °F 39.9 °F 74% 30.14 in 10.0 mi North 3.5 mph - N/A   Scattered Clouds
8:51 AM 53.1 °F 42.1 °F 66% 30.16 in 10.0 mi NNE 5.8 mph - N/A   Partly Cloudy
9:51 AM 55.0 °F 42.1 °F 62% 30.17 in 10.0 mi NE 10.4 mph - N/A   Scattered Clouds
10:51 AM 57.9 °F 42.1 °F 56% 30.17 in 10.0 mi ENE 5.8 mph - N/A   Partly Cloudy
11:51 AM 59.0 °F 39.9 °F 49% 30.17 in 10.0 mi NNE 6.9 mph - N/A   Partly Cloudy
12:51 PM 62.1 °F 42.1 °F 48% 30.17 in 10.0 mi Variable 4.6 mph - N/A   Partly Cloudy
1:51 PM 62.1 °F 41.0 °F 46% 30.17 in 10.0 mi NE 3.5 mph - N/A   Scattered Clouds
2:51 PM 64.0 °F 42.1 °F 45% 30.14 in 10.0 mi West 4.6 mph - N/A   Scattered Clouds
3:51 PM 66.0 °F 43.0 °F 43% 30.13 in 10.0 mi Calm Calm - N/A   Partly Cloudy
4:51 PM 66.9 °F 43.0 °F 42% 30.12 in 10.0 mi WNW 3.5 mph - N/A   Scattered Clouds
5:51 PM 66.9 °F 43.0 °F 42% 30.12 in 10.0 mi WNW 3.5 mph - N/A   Scattered Clouds
6:51 PM 64.9 °F 44.1 °F 47% 30.13 in 10.0 mi Calm Calm - N/A   Partly Cloudy
7:51 PM 61.0 °F 45.0 °F 56% 30.13 in 10.0 mi Calm Calm - N/A   Partly Cloudy
8:51 PM 57.9 °F 48.0 °F 70% 30.15 in 10.0 mi WSW 3.5 mph - N/A   Partly Cloudy
9:51 PM 52.0 °F 45.0 °F 77% 30.17 in 10.0 mi North 4.6 mph - N/A   Partly Cloudy
10:51 PM 52.0 °F 45.0 °F 77% 30.17 in 10.0 mi Calm Calm - N/A   Partly Cloudy
11:51 PM 52.0 °F 46.0 °F 80% 30.16 in 10.0 mi Calm Calm - N/A   Partly Cloudy